User: anonymous   Login
Location: Unspecified
(0.0000°N, 0.0000°E)
Time: 06:48:05
(UTC+00:00)
Language:

ONEWEB-0260 - Orbit

View from above orbital plane
View from above orbital plane
View from above satellite
View from above satellite

Ground track
Ground track

The orbit is defined by the following mean orbital elements,

1 48978U          26145.51819316 +.00000000 +00000-0 -42765-3 0 00009
2 48978  87.9099 233.2858 0002316  93.0813 267.0583 13.16594273    09
Epoch (UTC): 25 May 2026 12:26:11
Eccentricity: 0.0002316
inclination: 87.9099°
perigee height: 1196 km
apogee height: 1200 km
right ascension of ascending node: 233.2858°
argument of perigee: 93.0813°
revolutions per day: 13.16594273
mean anomaly at epoch: 267.0583°

The dashed part of the orbit path shows where the satellite is in the earth's shadow,  

DLR